EUTELSAT KONNECT (45027 NORAD) Tracking and Keplerian Element Data

This shows tracking and keplerian element data for the satellite.

Feedback or suggestion? Click here.




ElementValue
Catalog45027
NameEUTELSAT KONNECT
Epoch Orbit141
Epoch Day92.5
Epoch Year2020
RAAN240.4965
Inclination3.7415
Eccentricity0.5654315
Argument of Perigee206.1263
Mean Anonmoly98.8225
Mean Motion1.45642536
Decay Rate-4.1E-07
L11 45027U 20005B 20092.50000000 -.00000041 00000-0 00000-0 0 9999
L22 45027 3.7415 240.4965 5654315 206.1263 98.8225 1.45642536 1415

Live tracking and technical data element details for EUTELSAT KONNECT (NORAD 45027). EUTELSAT KONNECT can be tracked NOW for your location showing map with azimuth and elevation plus other details from your city location.

Track the satellite on the map from your city or location and see movement details for azimuth, elevation, latitude, longitude, range, height, and movement on the map or in text.







IsCatalogInMostPopularTable: catalog: 45027, numindb: 22
Update: records affected: 1



GetName: 45027 EUTELSAT KONNECT

Hit Count: updated at: Fri, 03 Apr 2020 22:37:43 GMT